OBJECT Z (43781 NORAD) Tracking and Keplerian Element Data

This shows tracking and keplerian element data for the satellite.

Feedback or suggestion? Click here.




ElementValue
Catalog43781
NameOBJECT Z
Epoch Orbit567
Epoch Day10.77099284
Epoch Year2019
RAAN84.5133
Inclination97.7575
Eccentricity0.0014855
Argument of Perigee131.0486
Mean Anonmoly229.2021
Mean Motion14.94913943
Decay Rate9.5E-07
L11 43781U 18099Z 19010.77099284 .00000095 00000-0 13956-4 0 9999
L22 43781 97.7575 84.5133 0014855 131.0486 229.2021 14.94913943 5678

Live tracking and technical data element details for OBJECT Z (NORAD 43781). OBJECT Z can be tracked NOW for your location showing map with azimuth and elevation plus other details from your city location.

Track the satellite on the map from your city or location and see movement details for azimuth, elevation, latitude, longitude, range, height, and movement on the map or in text.







IsCatalogInMostPopularTable: catalog: 43781, numindb: 17
Update: records affected: 1



GetName: 43781 OBJECT Z

Hit Count: updated at: Fri, 18 Jan 2019 22:55:43 GMT